Skip Page Navigation
NASA JPL Caltech
NASA Logo - Jet Propulsion Laboratory + View the NASA Portal
+ Center for Near-Earth Object Studies
JPL Home Earth Solar System Stars & Galaxies Technology
JPL Solar System Dynamics
BODIES ORBITS EPHEMERIDES TOOLS PHYSICAL DATA DISCOVERY FAQ SITE MAP
JPL Small-Body Database Browser
Search: [ help ]  
308247 (2005 GC49)
Classification: Main-belt Asteroid          SPK-ID: 2308247
Ephemeris | Orbit Diagram | Orbital Elements | Mission Design | Physical Parameters | Discovery Circumstances | Close-Approach Data ]

[ show orbit diagram ]
Orbital Elements at Epoch 2459000.5 (2020-May-31.0) TDB
Reference: JPL 9 (heliocentric ecliptic J2000)
 Element Value Uncertainty (1-sigma)   Units 
e .0814518865762498 1.0159e-07  
a 2.589833423313376 2.4269e-08 au
q 2.378886605066274 2.499e-07 au
i 4.176920060664079 7.7116e-06 deg
node 183.7962436303688 8.8556e-05 deg
peri 158.8383651637015 0.00010129 deg
M 97.49274722252351 5.2559e-05 deg
tp 2458588.235459930745
(2019-Apr-14.73545993)
0.00022027 TDB
period 1522.320774141073
4.17
2.1398e-05
5.858e-08
d
yr
n .2364810400771939 3.3241e-09 deg/d
Q 2.800780241560478 2.6246e-08 au
  Orbit Determination Parameters
   # obs. used (total)      167  
   data-arc span      6254 days (17.12 yr)  
   first obs. used      2002-09-12  
   last obs. used      2019-10-27  
   planetary ephem.      DE431  
   SB-pert. ephem.      SB431-N16  
   condition code      0  
   norm. resid. RMS      .60687  
   source      ORB  
   producer      Otto Matic  
   solution date      2019-Nov-08 07:53:12  

Additional Information
 Earth MOID = 1.37148 au 
 Jupiter MOID = 2.50314 au 
 T_jup = 3.412 
[ show covariance matrix ]

Ephemeris | Orbit Diagram | Orbital Elements | Mission Design | Physical Parameters | Discovery Circumstances | Close-Approach Data ]

Physical Parameter Table
Parameter Symbol Value Units Sigma Reference Notes
absolute magnitude H 16.8   n/a MPO494636  

308247 (2005 GC49)          Discovered 2005-Apr-05 by Mt. Lemmon Survey at Mount Lemmon
Reference: 20111210/Numbers.arcLast Updated: 2011-12-12

[ show close-approach data ]
Alternate Designations
 2005 GC49 = 2002 RD164 
Ephemeris | Orbit Diagram | Orbital Elements | Mission Design | Physical Parameters | Discovery Circumstances | Close-Approach Data ]
ABOUT SSD CREDITS/AWARDS PRIVACY/COPYRIGHT GLOSSARY LINKS
FirstGov 2020-Oct-24 06:22 UT
(server date/time)  
NASA Home Page
Site Manager:   Ryan S. Park
Webmaster  Alan B. Chamberlin